AVA541 MSLP-MHPR

Flight info

Callsign AVA541
Flight time 0h 26m
Altitude 17000
Route VITAN2W VITAN DCT KARID KARID1B
Aircraft A320/M-SDE3FGHIRWY/LB1

Departure

Time 2026-05-06 21:22
Airport El Salvador International Airport Saint Óscar Arnulfo Romero y Galdámez (MSLP)

Arrival

Time 2026-05-06 21:48
Airport Palmerola International Airport (MHPR)
Time Latitude Longitude Altitude Speed Heading
2026-05-06 20:46 13.44359 -89.05853 93 ft 0 kts 340°
2026-05-06 21:12 13.44354 -89.05851 93 ft 2 kts 340°
2026-05-06 21:13 13.44338 -89.05845 91 ft 2 kts 340°
2026-05-06 21:13 13.44322 -89.05838 89 ft 2 kts 302°
2026-05-06 21:13 13.44317 -89.05826 90 ft 0 kts 249°
2026-05-06 21:17 13.44311 -89.05827 93 ft 4 kts 197°
2026-05-06 21:18 13.44304 -89.05774 92 ft 17 kts 73°
2026-05-06 21:18 13.44358 -89.05587 97 ft 35 kts 67°
2026-05-06 21:18 13.44410 -89.05454 95 ft 16 kts 79°
2026-05-06 21:18 13.44368 -89.05362 96 ft 13 kts 108°
2026-05-06 21:19 13.44394 -89.05260 98 ft 23 kts 69°
2026-05-06 21:19 13.44472 -89.05038 100 ft 43 kts 70°
2026-05-06 21:19 13.44587 -89.04724 103 ft 46 kts 70°
2026-05-06 21:19 13.44686 -89.04429 107 ft 36 kts 71°
2026-05-06 21:20 13.44721 -89.04334 107 ft 7 kts 67°
2026-05-06 21:20 13.44727 -89.04274 108 ft 13 kts 105°
2026-05-06 21:20 13.44617 -89.04215 108 ft 23 kts 180°
2026-05-06 21:20 13.44553 -89.04302 107 ft 0 kts 249°
2026-05-06 21:21 13.44447 -89.04596 105 ft 82 kts 249°
2026-05-06 21:21 13.44176 -89.05351 94 ft 141 kts 249°
2026-05-06 21:21 13.43792 -89.06413 293 ft 174 kts 249°
2026-05-06 21:22 13.43374 -89.07635 793 ft 189 kts 249°
2026-05-06 21:22 13.42902 -89.08940 1370 ft 200 kts 246°
2026-05-06 21:22 13.42339 -89.10261 1929 ft 207 kts 245°
2026-05-06 21:22 13.41682 -89.11648 2274 ft 226 kts 238°
2026-05-06 21:23 13.40729 -89.13032 2636 ft 249 kts 227°
2026-05-06 21:23 13.39408 -89.14257 3298 ft 261 kts 214°
2026-05-06 21:23 13.37813 -89.15174 4126 ft 266 kts 201°
2026-05-06 21:23 13.36024 -89.15716 4924 ft 271 kts 188°
2026-05-06 21:24 13.34152 -89.15836 5679 ft 276 kts 174°
2026-05-06 21:24 13.32251 -89.15505 6477 ft 279 kts 161°
2026-05-06 21:24 13.30459 -89.14728 7257 ft 281 kts 148°
2026-05-06 21:24 13.28882 -89.13540 8052 ft 283 kts 134°
2026-05-06 21:25 13.27613 -89.11998 8839 ft 284 kts 121°
2026-05-06 21:25 13.26723 -89.10188 9660 ft 285 kts 108°
2026-05-06 21:25 13.26266 -89.08205 10387 ft 287 kts 95°
2026-05-06 21:25 13.26281 -89.06154 11119 ft 289 kts 82°
2026-05-06 21:26 13.26785 -89.04147 11855 ft 292 kts 68°
2026-05-06 21:26 13.27697 -89.02297 12481 ft 300 kts 62°
2026-05-06 21:26 13.28748 -89.00352 12667 ft 323 kts 62°
2026-05-06 21:26 13.29865 -88.98284 13021 ft 337 kts 62°
2026-05-06 21:27 13.31009 -88.96163 13629 ft 342 kts 62°
2026-05-06 21:27 13.32164 -88.94014 14211 ft 345 kts 62°
2026-05-06 21:27 13.33327 -88.91848 14798 ft 348 kts 62°
2026-05-06 21:27 13.34497 -88.89668 15418 ft 350 kts 62°
2026-05-06 21:28 13.35671 -88.87475 16039 ft 352 kts 63°
2026-05-06 21:28 13.36838 -88.85299 16646 ft 354 kts 63°
2026-05-06 21:28 13.38030 -88.83083 16922 ft 355 kts 63°
2026-05-06 21:28 13.39215 -88.80878 16991 ft 350 kts 63°
2026-05-06 21:29 13.40383 -88.78702 17000 ft 347 kts 63°
2026-05-06 21:29 13.41543 -88.76536 16985 ft 346 kts 63°
2026-05-06 21:29 13.42704 -88.74368 16984 ft 346 kts 63°
2026-05-06 21:29 13.43864 -88.72206 16982 ft 346 kts 63°
2026-05-06 21:30 13.45024 -88.70044 16976 ft 346 kts 63°
2026-05-06 21:30 13.46182 -88.67881 16978 ft 346 kts 63°
2026-05-06 21:30 13.47341 -88.65720 16977 ft 346 kts 63°
2026-05-06 21:30 13.48488 -88.63585 16977 ft 346 kts 63°
2026-05-06 21:31 13.49672 -88.61377 17001 ft 363 kts 63°
2026-05-06 21:31 13.50917 -88.59048 17002 ft 382 kts 62°
2026-05-06 21:31 13.52225 -88.56596 17000 ft 399 kts 62°
2026-05-06 21:31 13.53485 -88.54003 17001 ft 413 kts 68°
2026-05-06 21:32 13.54628 -88.51246 17001 ft 426 kts 68°
2026-05-06 21:32 13.57002 -88.45563 16965 ft 436 kts 67°
2026-05-06 21:32 13.58184 -88.42737 16958 ft 437 kts 68°
2026-05-06 21:33 13.59384 -88.39869 16948 ft 437 kts 68°
2026-05-06 21:33 13.60582 -88.37000 16944 ft 437 kts 68°
2026-05-06 21:33 13.61778 -88.34130 16939 ft 437 kts 68°
2026-05-06 21:33 13.62975 -88.31258 16919 ft 437 kts 68°
2026-05-06 21:34 13.64173 -88.28385 16940 ft 437 kts 68°
2026-05-06 21:34 13.65371 -88.25511 16934 ft 437 kts 68°
2026-05-06 21:34 13.66568 -88.22638 16931 ft 437 kts 68°
2026-05-06 21:34 13.67764 -88.19765 16931 ft 437 kts 68°
2026-05-06 21:35 13.68960 -88.16893 16929 ft 437 kts 68°
2026-05-06 21:35 13.70138 -88.14060 16930 ft 437 kts 68°
2026-05-06 21:35 13.71332 -88.11188 16970 ft 437 kts 68°
2026-05-06 21:35 13.72525 -88.08318 16973 ft 436 kts 67°
2026-05-06 21:36 13.73718 -88.05449 16972 ft 436 kts 68°
2026-05-06 21:36 13.74913 -88.02574 16971 ft 436 kts 68°
2026-05-06 21:36 13.76104 -87.99707 16977 ft 436 kts 68°
2026-05-06 21:36 13.77291 -87.96840 16976 ft 436 kts 68°
2026-05-06 21:37 13.78478 -87.93973 17020 ft 436 kts 68°
2026-05-06 21:37 13.79668 -87.91106 17020 ft 436 kts 68°
2026-05-06 21:37 13.80840 -87.88283 17015 ft 435 kts 68°
2026-05-06 21:37 13.82027 -87.85421 17041 ft 435 kts 68°
2026-05-06 21:38 13.83213 -87.82549 17044 ft 436 kts 68°
2026-05-06 21:38 13.84399 -87.79681 17044 ft 436 kts 68°
2026-05-06 21:38 13.85587 -87.76811 17033 ft 436 kts 68°
2026-05-06 21:38 13.86712 -87.73915 17032 ft 436 kts 71°
2026-05-06 21:39 13.87711 -87.70962 17065 ft 438 kts 72°
2026-05-06 21:39 13.88653 -87.67985 17083 ft 437 kts 73°
2026-05-06 21:39 13.89559 -87.65000 17084 ft 437 kts 73°
2026-05-06 21:39 13.90441 -87.62048 17084 ft 438 kts 73°
2026-05-06 21:40 13.91332 -87.59055 17082 ft 437 kts 73°
2026-05-06 21:40 13.92228 -87.56067 17109 ft 437 kts 73°
2026-05-06 21:40 13.93132 -87.53090 16960 ft 432 kts 73°
2026-05-06 21:40 13.94018 -87.50193 15977 ft 417 kts 73°
2026-05-06 21:41 13.94892 -87.47404 14959 ft 403 kts 70°
2026-05-06 21:41 13.96300 -87.44979 14004 ft 393 kts 48°
2026-05-06 21:41 13.98506 -87.43375 12978 ft 388 kts 24°
2026-05-06 21:41 14.01122 -87.42857 11972 ft 385 kts
2026-05-06 21:42 14.03660 -87.43482 11027 ft 381 kts 335°
2026-05-06 21:42 14.05739 -87.45123 10100 ft 376 kts 315°
2026-05-06 21:42 14.07464 -87.47074 9429 ft 359 kts 314°
2026-05-06 21:42 14.09087 -87.48926 9088 ft 336 kts 314°
2026-05-06 21:43 14.10586 -87.50649 8951 ft 311 kts 314°
2026-05-06 21:43 14.11932 -87.52282 8827 ft 287 kts 317°
2026-05-06 21:43 14.13394 -87.53553 8699 ft 264 kts 331°
2026-05-06 21:43 14.14911 -87.54532 8401 ft 253 kts 330°
2026-05-06 21:44 14.16371 -87.55484 7922 ft 252 kts 330°
2026-05-06 21:44 14.17838 -87.56461 7443 ft 251 kts 329°
2026-05-06 21:44 14.19304 -87.57459 6948 ft 253 kts 328°
2026-05-06 21:44 14.20756 -87.58449 6573 ft 248 kts 330°
2026-05-06 21:45 14.22318 -87.59114 6256 ft 238 kts 351°
2026-05-06 21:45 14.23890 -87.59406 6147 ft 221 kts 353°
2026-05-06 21:45 14.25332 -87.59685 6045 ft 200 kts 353°
2026-05-06 21:45 14.26620 -87.59938 5897 ft 179 kts 354°
2026-05-06 21:46 14.27770 -87.60161 5720 ft 163 kts 353°
2026-05-06 21:46 14.28858 -87.60366 5453 ft 156 kts 354°
2026-05-06 21:46 14.29923 -87.60564 5138 ft 155 kts 354°
2026-05-06 21:46 14.30993 -87.60761 4704 ft 162 kts 354°
2026-05-06 21:47 14.32154 -87.60988 4111 ft 174 kts 352°
2026-05-06 21:47 14.33367 -87.61207 3504 ft 180 kts 349°
2026-05-06 21:47 14.34605 -87.61436 2981 ft 179 kts 348°
2026-05-06 21:47 14.35819 -87.61666 2472 ft 174 kts 349°
2026-05-06 21:48 14.36962 -87.61874 2138 ft 159 kts 349°
2026-05-06 21:48 14.37976 -87.62063 2063 ft 138 kts 348°
2026-05-06 21:48 14.38625 -87.62184 2067 ft 33 kts 351°
2026-05-06 21:48 14.38779 -87.62208 2068 ft 12 kts 352°
2026-05-06 21:49 14.38829 -87.62154 2068 ft 15 kts 68°
2026-05-06 21:49 14.38816 -87.62038 2068 ft 17 kts 147°
2026-05-06 21:49 14.38564 -87.61981 2065 ft 59 kts 169°
2026-05-06 21:49 14.38198 -87.61908 2060 ft 32 kts 169°
2026-05-06 21:50 14.38045 -87.61880 2058 ft 10 kts 160°
2026-05-06 21:50 14.38023 -87.61806 2058 ft 19 kts 76°
2026-05-06 21:50 14.38054 -87.61725 2058 ft 0 kts 48°